Wind_Speed
17 18 17 16 17 19 21 21 20 18 18 20 21 21 22 23 22 20 20 21 24 24 20 19 20 18 17 17 15 13 13 13 12 10 8 8 10 12 9 5 5 6 4 3 4 6 7 10 13 15 17 17 15 14 12 11 10 12 13 14 14 14 13 13 13 12 12 12 12 12 12 12 11 10 10 9 9 9 9 9 10 9 9 7 5 4
16 9 5 9 14 19 22 23 22 21 22 23 23 22 22 25 24 22 21 20 24 25 22 20 20 18 16 16 16 15 14 12 10 9 6 4 6 9 9 5 4 6 3 2 4 6 7 9 11 13 16 16 15 13 12 12 12 12 14 14 14 14 13 13 12 12 11 11 11 11 11 11 11 10 9 9 10 10 10 9 9 8 7 6 4 2
13 5 2 7 12 18 22 23 23 22 24 26 26 23 23 25 26 26 23 20 24 28 25 24 22 20 18 18 19 17 15 12 11 9 6 4 4 5 9 6 3 4 2 3 5 6 8 10 11 13 15 16 16 16 15 15 13 13 13 12 12 12 12 11 11 11 10 10 10 9 9 10 10 10 9 10 11 11 10 9 8 7 6 4 2 0
13 8 8 10 12 17 20 23 25 25 26 28 29 27 21 22 27 28 25 23 26 29 28 28 26 23 21 20 20 18 15 14 14 13 12 9 6 2 6 7 3 2 3 4 5 6 7 9 11 12 14 16 17 17 16 15 13 12 12 12 12 11 11 10 10 9 9 9 8 8 8 8 8 10 11 11 11 11 10 8 8 6 5 3 1 1
17 13 13 15 16 17 20 23 26 28 27 27 31 29 21 21 26 27 26 27 30 31 28 28 29 26 23 21 20 18 16 16 16 16 16 13 7 1 3 6 4 3 3 4 5 6 6 7 10 12 15 17 17 16 15 14 13 13 13 13 13 12 10 10 9 8 8 8 8 8 7 8 8 9 10 11 10 10 8 7 6 5 4 3 2 3
18 18 18 19 19 19 21 23 25 26 26 27 28 26 23 25 27 28 28 28 31 31 28 28 30 27 25 23 22 20 18 18 16 16 16 15 9 4 0 5 6 4 4 4 5 6 6 7 10 11 12 13 13 14 14 14 15 16 15 14 12 11 10 9 8 7 8 8 7 7 8 7 7 8 9 10 10 10 8 7 6 5 4 4 4 4
18 20 21 22 22 21 21 20 21 23 25 25 23 24 27 29 28 29 30 31 33 32 30 31 31 26 26 26 23 21 20 19 19 19 18 17 14 7 3 3 7 5 5 5 5 5 6 8 9 9 8 8 10 12 13 14 15 15 15 13 11 10 10 9 8 8 8 8 8 8 8 7 7 8 8 9 10 10 9 8 7 6 5 5 5 5
15 20 22 22 22 22 20 16 17 20 20 16 18 26 29 29 30 31 33 35 34 34 35 34 32 28 24 24 24 23 22 22 22 22 21 20 17 11 7 3 5 7 6 6 5 5 6 8 9 9 8 8 9 11 12 12 13 13 13 12 12 11 10 9 9 9 9 9 10 9 9 9 9 9 8 8 9 9 9 9 8 8 7 7 7 6
15 20 21 21 24 24 20 16 16 17 14 12 20 27 28 29 32 33 36 37 35 38 38 34 34 31 21 21 25 25 24 23 22 22 23 22 18 13 10 7 2 7 7 7 6 6 6 7 9 10 10 10 11 11 10 11 11 12 12 12 12 11 10 9 9 10 11 11 11 10 10 10 10 9 9 9 9 9 10 10 9 9 9 9 8 7
23 24 24 24 25 24 22 20 19 17 14 15 22 27 28 31 33 36 38 36 38 41 38 33 35 34 20 19 26 25 22 20 20 22 24 23 19 16 13 10 5 4 7 6 7 7 7 7 8 10 11 11 12 12 10 11 11 11 11 11 11 11 11 10 9 10 11 12 11 10 10 11 11 10 10 11 10 10 10 10 11 11 11 10 9 8
27 28 28 24 22 22 23 24 23 21 19 21 25 29 32 32 35 40 39 39 43 40 33 31 37 37 24 18 25 22 16 17 20 23 25 24 21 19 16 12 8 3 5 6 7 8 9 9 8 8 9 10 11 11 11 11 11 11 11 10 10 11 11 10 10 10 10 10 10 11 11 11 10 11 11 11 12 11 11 12 12 12 11 10 9 8
30 32 28 22 21 22 22 23 24 24 25 27 29 32 35 35 37 42 41 43 40 29 26 30 37 39 23 12 18 17 13 17 21 23 25 24 23 21 18 14 10 5 4 7 8 8 10 10 9 7 7 9 9 10 10 11 11 11 12 11 11 11 11 11 11 11 10 9 10 11 11 11 10 10 11 13 13 12 12 12 12 12 12 11 9 9
30 30 28 25 23 22 21 22 23 25 26 28 31 33 35 36 38 41 41 39 30 23 23 28 35 34 16 8 11 12 12 15 19 22 24 25 25 24 22 19 15 11 6 7 9 10 10 10 9 9 9 9 9 10 11 11 12 12 13 13 13 13 12 12 12 12 11 10 10 11 12 12 11 10 12 13 13 13 13 13 13 14 14 12 10 9
29 29 30 28 24 23 22 21 21 23 25 27 29 31 32 33 36 37 35 32 27 25 26 27 35 32 14 7 9 10 12 13 17 21 21 22 24 24 24 21 18 16 12 9 10 12 12 11 11 11 11 11 11 12 12 12 13 13 14 14 14 14 13 13 12 12 12 12 12 12 13 13 12 11 12 13 13 13 14 14 14 15 15 13 11 10
31 32 31 27 23 23 23 20 20 23 25 25 27 31 33 32 33 32 31 30 28 28 29 29 34 27 14 9 8 10 14 13 16 18 18 20 21 21 23 23 21 20 18 14 12 12 12 13 14 14 15 15 14 15 15 14 14 14 14 14 14 15 14 14 13 13 13 13 14 15 15 15 14 13 14 14 14 14 14 15 15 16 16 14 13 11
35 33 28 28 28 27 25 23 24 28 28 27 29 32 30 27 29 33 34 34 33 34 34 31 29 22 17 16 14 14 16 15 16 17 17 19 19 19 21 23 23 21 19 17 14 12 11 13 16 17 18 18 18 18 18 17 16 14 14 15 16 16 16 15 15 14 15 15 16 16 16 16 16 16 16 16 15 15 16 17 17 17 17 15 13 12
37 31 27 31 33 29 28 28 31 32 30 31 33 30 23 23 29 34 35 36 38 40 37 32 29 22 20 21 16 14 16 18 18 16 16 18 18 20 21 21 21 19 17 16 14 12 10 13 17 19 19 19 20 20 20 19 17 16 16 17 17 17 16 14 14 14 15 16 17 17 18 18 18 18 18 18 18 18 18 19 19 19 18 16 14 12
41 34 31 34 32 28 29 32 35 35 34 36 32 25 25 30 33 35 36 36 40 42 36 30 28 24 22 20 16 14 14 17 19 17 17 17 18 19 19 19 20 18 17 15 14 14 13 14 18 20 21 20 20 21 20 20 19 19 19 18 17 16 14 14 15 15 15 15 16 17 19 20 20 20 20 20 21 21 20 20 21 21 19 17 15 14
45 41 39 37 33 31 33 37 39 39 38 36 30 28 33 37 35 36 37 35 37 39 32 26 25 24 19 14 12 14 13 14 18 18 18 17 18 18 16 16 17 18 19 18 17 16 15 15 16 19 22 21 19 21 21 21 21 21 20 18 17 16 15 15 15 14 14 14 15 17 19 21 22 23 23 23 24 23 21 21 22 23 21 19 17 15
48 47 44 40 37 37 40 43 43 40 37 35 33 35 38 37 35 37 38 35 35 35 31 26 22 16 12 12 12 12 12 14 17 18 18 18 17 17 16 15 15 16 19 20 18 16 13 12 14 18 22 22 20 20 21 22 23 22 21 19 16 16 16 15 14 13 13 14 15 17 18 21 22 23 24 24 25 24 22 23 24 24 23 21 18 16
48 49 47 43 42 44 47 48 44 39 37 36 37 38 37 38 38 38 39 37 35 34 31 28 19 6 4 10 13 12 12 13 15 17 19 19 19 19 17 16 15 14 18 21 18 15 13 11 12 17 21 23 22 22 23 25 24 23 22 20 18 17 16 15 14 13 14 14 14 15 17 19 21 22 24 24 25 24 23 24 24 25 24 23 20 17
51 52 51 47 47 49 50 47 42 38 38 39 39 38 37 38 39 40 40 37 34 33 30 29 25 11 7 10 12 14 14 12 13 15 17 18 20 20 18 17 16 15 18 21 18 15 13 10 12 16 20 24 25 24 25 25 25 24 23 20 19 18 16 15 14 14 15 14 14 13 14 16 18 20 22 23 24 24 24 24 25 26 25 23 21 19
54 56 54 50 50 51 49 46 43 41 41 42 43 41 39 41 42 42 40 34 33 34 30 32 30 17 11 13 14 15 15 14 14 15 16 18 19 20 19 20 19 18 20 22 20 17 14 11 14 16 19 24 25 25 26 26 25 25 23 22 21 18 16 15 15 16 16 14 13 12 12 12 14 16 18 20 22 23 25 25 27 27 26 24 22 20
57 57 56 52 51 51 50 49 48 47 46 48 48 44 44 45 44 42 38 34 37 38 34 35 33 18 12 13 15 16 17 17 15 14 15 17 19 21 22 22 21 20 23 24 22 21 17 13 15 18 20 22 25 25 26 26 26 25 23 23 22 19 16 16 18 18 16 14 13 12 11 10 11 13 15 17 19 22 25 27 28 28 27 26 24 21
60 60 59 56 54 53 53 53 54 53 53 54 52 48 47 45 43 42 40 39 42 41 37 37 34 22 15 15 17 19 19 18 17 15 15 16 19 21 22 23 23 23 24 25 25 24 21 16 16 19 19 19 22 24 25 26 26 25 23 22 22 20 19 19 20 18 16 15 14 13 12 11 10 10 11 13 14 18 23 27 29 29 28 27 25 23
63 62 62 60 57 57 56 56 57 57 56 56 55 52 49 46 45 44 42 44 46 42 39 39 34 24 18 18 19 20 20 19 18 17 17 16 17 20 21 23 24 24 25 26 26 25 25 21 19 20 19 17 19 22 24 25 25 25 23 21 21 22 22 22 21 19 18 17 14 13 13 12 11 10 10 10 11 14 18 24 29 31 30 29 27 24
65 64 64 63 60 59 58 57 58 58 58 58 57 54 52 49 47 45 46 49 47 42 41 39 33 29 24 20 19 21 22 21 20 19 19 18 17 19 21 23 25 25 26 27 26 25 25 24 22 22 20 16 16 19 22 24 24 23 22 20 21 23 23 23 22 20 19 17 15 13 13 13 11 11 11 11 12 13 15 19 25 30 31 30 28 26
67 66 66 65 63 61 60 58 59 59 59 60 58 56 54 51 49 49 51 51 46 45 44 36 30 31 29 22 21 21 21 21 20 20 20 20 19 20 21 22 24 26 27 28 28 26 26 26 25 24 22 18 17 18 20 23 23 22 21 20 22 23 23 23 22 21 19 18 16 13 13 13 13 13 13 13 14 13 14 17 21 25 29 29 28 27
70 68 68 68 66 64 62 61 60 59 60 60 59 57 55 53 51 51 52 49 47 48 43 32 30 34 31 26 22 20 21 22 21 22 23 23 22 20 21 22 23 24 25 27 27 26 26 27 26 25 23 19 18 18 20 23 23 22 21 21 22 22 22 22 22 20 19 18 15 13 14 15 15 15 15 15 16 15 15 16 19 22 25 26 26 26
72 71 70 70 69 66 65 64 62 61 61 60 59 58 57 55 53 52 52 49 48 49 43 36 37 38 33 29 24 21 23 25 25 26 27 26 24 22 22 23 23 23 24 26 27 26 27 28 27 25 23 20 18 19 21 23 23 23 22 21 21 20 19 20 20 18 17 17 15 15 17 17 17 18 18 17 17 17 17 18 18 20 22 23 25 26
74 73 72 72 71 69 67 67 65 63 63 62 60 59 58 56 55 54 54 53 51 51 46 41 43 41 34 29 26 23 24 27 28 29 30 29 27 25 25 25 25 25 26 26 27 27 27 27 26 24 23 21 19 20 22 24 25 25 24 22 22 20 20 20 18 16 15 15 16 19 20 19 19 19 19 19 18 18 19 20 20 20 21 22 24 26
77 76 75 74 74 71 69 69 68 66 65 64 61 59 58 58 58 57 56 56 55 53 48 46 47 43 33 27 26 25 25 27 28 30 31 31 30 29 28 28 28 28 27 27 28 28 27 27 26 23 20 19 19 20 21 24 26 27 27 26 24 23 23 22 20 17 15 15 18 21 20 19 19 20 20 20 20 20 21 21 21 21 21 22 23 24
80 79 77 77 76 74 71 71 70 68 67 65 61 60 60 59 59 58 58 57 56 54 52 51 49 40 30 28 29 28 28 29 29 30 31 32 33 33 31 29 30 29 28 28 29 30 28 27 27 25 21 19 20 19 18 21 24 26 27 27 27 27 26 24 23 21 18 17 19 20 19 18 18 19 20 21 22 23 24 23 21 21 21 21 22 23
82 81 79 79 79 76 74 73 72 72 70 66 63 62 60 60 60 60 59 58 57 55 54 52 48 40 35 34 34 31 30 32 32 32 33 34 36 36 33 31 32 31 30 30 31 31 30 28 27 27 24 22 22 21 20 20 22 25 30 31 31 31 29 25 25 24 21 20 20 20 20 19 18 19 22 24 25 26 26 25 23 22 22 21 21 21
84 83 82 81 81 79 76 75 75 75 70 67 66 64 61 61 62 61 60 59 57 57 56 54 51 46 41 39 37 34 33 35 36 35 35 36 37 37 36 33 33 33 32 32 32 32 30 28 27 27 25 24 24 24 24 23 22 25 29 31 31 31 29 26 25 24 23 22 22 22 22 21 20 21 23 25 27 28 28 27 25 24 23 22 21 21
85 84 84 83 82 81 79 77 78 76 72 70 70 67 63 62 61 61 61 59 58 58 58 57 55 50 45 42 40 37 37 39 39 38 37 36 37 37 37 35 34 35 35 34 34 32 30 29 29 29 27 26 27 26 25 24 24 25 27 28 28 27 26 25 25 25 24 24 24 24 24 23 23 23 24 25 26 27 28 29 28 26 25 24 23 22
85 85 85 84 84 83 81 80 80 78 75 73 72 70 67 63 61 62 63 60 58 59 59 58 55 52 49 47 43 41 42 43 42 41 39 37 36 37 38 37 36 36 36 36 36 34 32 31 32 32 31 30 29 28 26 26 27 27 28 29 28 26 26 26 26 26 26 26 26 25 25 26 27 27 27 27 27 28 28 29 30 29 28 26 24 23
84 85 84 84 84 84 82 82 82 81 78 75 73 73 71 66 62 63 64 61 57 58 59 57 55 53 51 50 47 45 45 46 45 44 41 39 37 36 37 38 38 37 37 37 38 36 34 34 34 34 34 34 32 31 29 28 28 29 30 31 30 29 28 27 26 27 28 28 29 28 26 27 30 31 31 31 31 31 31 32 31 31 31 28 26 26
84 84 83 83 83 84 84 84 84 83 81 77 75 75 74 70 65 62 64 63 58 57 58 57 54 53 52 52 50 49 49 49 48 45 42 41 39 38 37 39 39 38 38 38 39 39 37 37 38 38 38 38 38 36 33 31 29 29 30 31 31 30 29 27 27 29 29 29 31 30 28 30 34 36 35 34 35 35 35 35 34 35 35 32 29 29
86 84 84 84 85 85 85 86 85 84 82 78 77 76 75 74 69 63 64 65 60 57 58 56 53 52 52 53 52 51 50 49 47 45 43 42 41 40 39 39 39 39 39 39 40 40 39 39 40 40 40 40 40 39 37 34 32 31 31 31 30 30 30 28 28 30 30 31 32 33 32 34 37 38 37 36 37 37 36 35 35 36 37 36 32 31
88 87 85 85 86 86 85 86 86 85 82 78 76 76 75 76 73 67 65 64 60 57 56 55 52 51 51 52 52 51 50 47 46 46 45 42 41 41 41 41 40 40 40 41 41 41 41 41 40 40 41 41 41 41 40 38 37 36 35 34 33 32 31 30 30 31 32 34 36 36 36 37 38 38 38 38 39 40 37 35 34 35 37 38 36 35
85 88 87 86 86 85 85 85 86 85 83 78 76 75 75 75 75 71 66 63 60 57 55 54 52 51 50 51 51 51 49 47 46 46 45 43 41 40 40 41 42 42 42 43 44 44 43 43 43 42 42 42 42 42 42 42 40 39 38 38 36 34 33 33 34 35 36 38 39 38 38 38 39 39 38 38 40 40 39 38 38 39 40 40 39 39
81 85 88 88 87 85 85 86 86 87 84 78 74 74 75 75 75 73 67 62 59 56 54 52 51 49 49 49 50 50 49 48 47 46 45 44 42 40 40 41 42 44 44 44 46 47 46 46 46 45 44 43 43 43 44 44 42 41 40 39 37 35 35 35 36 37 38 39 39 39 39 39 40 40 40 40 41 42 44 45 44 42 43 44 43 43
74 78 84 88 87 86 86 88 90 89 83 74 68 69 72 74 74 73 68 62 58 55 53 52 51 49 48 47 48 48 48 47 47 46 45 45 44 42 41 41 42 44 45 45 47 49 49 49 49 48 47 46 45 45 45 45 44 44 43 41 40 39 38 38 38 39 40 40 40 41 41 41 41 42 42 42 43 44 47 50 50 47 44 44 44 45
64 70 76 83 87 87 87 88 88 84 75 67 65 66 68 70 70 70 67 63 59 55 53 52 51 50 49 48 48 48 48 47 47 47 46 45 45 44 43 42 42 42 44 45 46 48 50 50 50 50 50 49 48 47 47 47 47 47 46 45 44 44 43 43 43 43 44 44 44 44 44 43 44 45 46 46 47 47 48 50 52 52 51 50 48 47
54 60 66 73 80 83 84 84 84 80 70 64 64 64 63 63 64 64 63 61 59 56 53 52 51 52 52 52 51 51 50 49 48 48 48 46 45 44 44 43 43 42 43 43 44 46 49 50 51 51 51 51 51 50 50 51 50 50 50 49 49 49 48 48 48 47 47 47 46 47 47 47 47 48 49 49 50 51 50 51 52 52 52 54 55 53
47 54 59 65 70 74 75 78 82 80 71 63 61 61 59 59 57 56 56 56 54 53 54 53 51 52 53 55 55 54 52 52 50 50 51 50 48 46 45 44 44 43 42 42 42 43 44 46 48 49 50 50 51 51 51 52 52 53 53 53 53 53 52 50 49 48 46 45 45 45 47 48 48 49 50 51 52 53 53 53 54 54 53 54 56 56
44 52 57 61 64 65 66 70 76 79 73 64 62 61 57 54 53 51 52 54 52 51 53 55 54 55 56 56 57 56 55 54 54 53 54 53 51 49 46 45 44 44 43 42 41 41 41 43 45 47 47 48 48 48 48 49 49 50 51 51 51 50 48 47 46 45 44 43 44 45 47 48 49 50 51 53 54 56 57 57 58 58 58 56 56 56
43 51 56 58 60 60 60 62 70 76 75 68 65 64 58 52 53 53 53 55 56 55 57 57 57 58 59 58 58 57 56 57 58 58 58 57 55 52 50 47 46 46 45 44 43 41 41 43 45 46 46 45 45 45 45 45 45 45 45 46 46 45 45 45 45 46 46 46 47 48 49 50 51 52 53 55 56 57 59 60 60 61 61 61 59 58
37 45 53 58 58 57 57 57 60 68 74 71 66 65 62 56 55 58 56 56 58 61 61 60 60 61 61 60 59 56 55 59 63 63 62 61 59 56 54 52 51 49 48 48 47 44 43 44 46 47 47 45 44 44 44 44 44 45 45 46 46 47 47 47 47 47 48 49 50 51 52 52 53 54 55 56 57 58 58 59 60 61 61 60 60 59
30 39 51 58 58 55 55 55 51 55 68 73 67 64 65 61 57 58 57 56 58 60 58 58 61 64 63 62 60 55 53 58 64 65 64 63 62 59 57 55 54 53 52 51 50 47 44 43 45 47 47 46 45 45 45 45 46 47 47 47 48 48 48 48 48 48 48 49 51 52 53 53 54 55 56 57 58 58 59 60 61 62 63 63 64 64
Wind_Direction
241 242 243 242 243 246 246 245 242 231 222 224 226 223 220 216 206 201 216 232 236 230 215 194 181 172 159 148 144 139 124 110 101 87 65 33 7 341 332 344 314 304 315 288 213 199 208 200 189 183 182 182 181 185 189 187 186 183 178 173 171 169 167 166 168 169 170 172 175 176 174 175 178 181 181 176 169 165 157 149 145 142 140 139 137 127
236 240 254 244 239 241 241 240 238 232 224 222 223 218 215 211 200 200 213 229 237 229 219 210 194 182 175 165 160 150 133 119 113 104 87 49 17 341 319 324 316 310 322 279 224 195 197 200 194 189 184 182 181 184 188 192 190 183 178 174 169 167 166 165 166 169 171 173 175 176 176 175 178 181 181 174 169 166 161 154 150 147 147 144 140 122
233 221 239 233 229 232 234 234 232 229 224 222 221 216 213 208 199 201 210 223 235 229 223 223 209 193 192 185 169 157 146 142 141 134 129 112 57 351 319 313 299 298 288 241 233 206 192 195 192 190 187 184 185 186 189 194 191 183 178 173 168 167 166 163 165 168 171 175 177 178 179 177 177 179 180 178 174 172 169 163 158 155 156 154 147 120
235 223 229 228 222 224 227 228 227 225 221 219 221 220 213 207 204 205 210 218 228 229 225 226 220 205 200 194 174 164 165 167 163 154 146 128 101 31 326 315 271 243 255 233 237 224 195 191 189 187 190 190 191 190 192 195 191 188 185 178 177 175 171 168 168 168 168 174 178 182 185 183 181 180 182 185 182 178 175 169 167 167 169 175 195 277
237 227 224 226 223 220 220 223 224 224 222 218 220 222 213 210 212 206 210 219 224 227 227 229 229 216 208 200 182 181 184 176 167 154 141 126 117 131 320 309 265 212 238 230 230 232 205 191 190 190 193 194 194 192 193 196 196 200 199 192 190 186 181 177 173 169 169 175 182 185 190 194 193 186 184 188 189 186 182 177 176 179 187 202 238 277
238 232 227 228 228 225 223 222 224 226 225 222 223 224 215 213 215 207 209 221 225 226 228 233 235 224 215 206 191 194 191 175 170 157 142 136 138 148 224 294 268 212 211 232 231 229 215 200 193 192 195 195 195 196 196 196 198 203 205 202 198 194 192 191 185 180 181 184 187 191 195 198 201 199 192 190 194 195 193 189 190 198 211 225 250 276
235 235 231 230 230 230 230 230 229 229 228 227 224 223 219 214 214 211 210 220 227 226 225 232 237 230 220 211 201 201 194 183 179 164 151 147 142 137 139 262 266 229 195 219 238 230 215 210 202 194 192 190 193 199 201 200 200 203 204 203 202 201 199 199 197 195 199 201 198 198 200 199 204 209 203 196 199 204 202 200 202 210 223 240 257 275
235 238 235 234 234 234 234 234 237 237 235 229 217 220 223 216 212 213 212 220 227 227 225 227 235 237 222 209 210 210 201 194 184 166 155 150 141 139 142 154 258 246 209 199 225 235 216 210 211 202 190 185 193 198 200 203 205 205 204 203 204 207 204 202 202 203 209 212 209 207 204 204 209 210 208 204 203 206 207 209 212 215 226 241 255 271
229 235 235 234 234 233 231 229 233 236 230 213 209 217 223 218 213 213 215 220 225 229 230 227 234 243 226 204 216 219 208 199 184 168 158 150 142 142 144 138 197 250 233 200 203 227 227 212 209 205 194 188 193 197 197 203 208 206 203 201 202 206 207 206 205 207 214 219 217 213 209 211 216 214 212 212 210 208 210 214 217 220 228 238 251 265
221 227 229 229 230 228 222 220 221 219 210 201 207 213 217 217 214 215 218 219 223 232 237 229 231 245 236 203 214 218 207 199 184 171 162 153 149 148 148 145 152 232 246 219 200 210 228 228 215 207 200 196 195 196 201 207 213 212 209 207 205 206 209 209 210 211 215 220 222 218 215 218 221 220 219 219 219 216 215 218 221 224 230 238 249 261
220 225 229 229 231 229 223 222 219 213 204 196 202 210 214 215 212 215 219 219 225 239 246 230 227 242 243 208 211 214 199 196 190 178 170 163 157 151 150 147 144 186 244 239 216 208 221 232 230 219 210 209 204 200 203 209 215 220 220 218 215 213 210 209 212 216 217 217 218 218 220 224 226 224 225 227 227 224 222 223 227 231 235 241 250 261
220 225 231 233 231 229 226 225 222 220 211 199 202 211 215 215 213 215 219 221 231 253 256 232 227 240 240 191 205 214 192 197 197 186 177 169 160 155 153 151 151 165 221 241 233 222 224 228 231 232 227 227 222 214 212 212 213 217 219 220 218 215 210 208 210 216 220 218 216 219 224 229 230 226 226 229 232 231 229 231 234 238 242 246 252 260
228 228 231 232 228 226 225 224 223 225 223 213 211 217 219 219 218 220 224 230 246 272 263 237 231 239 235 164 198 210 188 191 193 191 187 176 168 165 162 159 162 170 189 226 236 231 226 223 223 224 225 229 230 229 226 222 220 217 217 219 219 217 213 210 209 212 218 221 223 226 228 231 232 228 227 232 235 234 233 235 238 241 246 251 254 259
229 228 229 230 226 225 225 224 225 230 232 228 227 229 230 230 230 233 238 245 258 269 264 244 233 239 245 207 209 208 196 188 183 190 196 190 182 175 169 166 169 174 179 198 224 232 225 220 220 222 225 226 227 233 234 231 229 227 224 224 226 228 228 224 220 219 220 223 228 233 235 238 239 236 234 236 239 239 237 238 239 242 249 253 256 262
222 222 225 227 227 229 230 228 230 234 234 234 234 235 237 240 243 247 250 254 259 262 263 252 240 247 266 253 238 231 221 208 193 192 199 203 197 184 175 172 177 183 185 189 202 222 230 227 223 222 226 228 228 233 238 240 238 236 236 234 234 237 241 242 240 237 233 230 233 237 240 243 245 243 242 242 242 243 243 242 241 244 249 252 256 264
224 222 220 222 223 224 225 224 226 230 230 230 229 230 236 243 247 247 246 248 253 256 258 258 254 263 277 267 258 245 234 228 216 204 203 207 204 197 190 185 186 190 190 190 192 204 226 238 234 227 226 228 230 235 240 245 246 243 241 239 240 242 246 249 251 249 244 239 239 240 242 245 247 247 247 247 247 244 243 244 244 245 247 250 255 263
229 224 219 225 226 222 220 219 222 225 226 228 229 229 235 241 241 242 242 242 247 251 253 257 259 261 262 258 254 245 237 235 232 220 209 205 203 206 207 201 198 194 193 195 193 196 212 233 241 238 232 229 231 237 242 247 250 245 239 238 240 242 245 247 248 246 244 243 243 243 243 244 246 248 249 249 249 245 243 243 245 247 249 250 252 256
228 221 217 224 226 221 220 221 222 222 221 225 227 225 231 233 232 236 237 235 238 245 249 251 254 256 254 253 252 248 240 236 238 236 222 213 209 210 212 213 210 206 206 202 194 199 210 223 235 240 238 233 230 235 240 244 246 242 237 236 237 239 241 239 237 237 239 242 243 242 242 242 242 243 245 247 247 246 245 245 246 248 250 249 249 251
227 222 216 219 220 218 220 222 223 222 221 224 222 219 226 230 231 235 238 236 236 243 250 252 255 257 256 258 258 252 246 240 241 243 238 230 222 216 214 218 219 220 222 212 199 201 210 222 232 237 239 237 233 232 235 239 242 241 238 235 233 233 233 232 233 236 239 240 241 241 240 239 238 239 240 243 246 247 246 246 247 249 249 249 249 250
228 226 221 218 218 219 222 224 223 222 223 224 222 221 225 230 232 236 241 242 241 246 253 256 257 257 255 263 266 257 251 248 245 246 247 244 235 226 221 223 227 231 225 210 197 196 202 218 231 233 234 234 232 231 232 236 240 241 241 237 233 231 230 230 232 235 239 240 242 242 240 239 238 238 239 240 244 247 247 246 247 248 249 249 249 248
231 232 228 221 219 222 225 227 226 224 225 226 227 228 230 233 235 235 239 242 243 245 250 253 250 230 216 250 258 258 251 246 246 247 248 249 244 236 229 224 230 234 217 198 189 189 193 211 229 232 231 229 227 228 230 234 237 238 240 237 233 231 229 228 231 236 243 246 248 248 245 241 238 237 238 239 241 244 246 247 249 250 250 250 250 248
233 234 232 225 223 225 228 230 229 227 227 228 229 230 232 236 238 239 241 244 247 250 254 257 256 246 227 233 235 242 241 230 232 236 237 243 244 239 235 231 233 230 210 195 189 189 193 210 229 233 232 228 226 228 232 235 237 238 239 238 235 233 230 229 232 239 247 254 258 257 251 245 241 239 240 240 241 242 243 246 248 249 250 251 251 249
234 235 234 229 227 229 229 229 228 227 227 228 228 227 227 232 235 239 242 245 252 254 255 259 258 245 226 230 226 230 234 226 225 225 223 229 232 230 232 235 236 226 209 199 197 195 195 213 230 232 232 229 227 228 233 235 237 239 240 240 240 239 235 233 235 241 249 259 265 265 260 255 249 245 244 243 243 242 242 243 245 247 248 249 249 247
234 235 236 232 230 230 229 228 227 226 226 228 228 225 225 228 232 236 240 241 246 248 248 252 251 232 213 228 227 227 232 232 229 225 222 223 222 221 224 230 235 226 213 209 210 207 204 213 231 233 229 228 226 228 231 234 237 239 238 239 242 243 240 236 238 243 252 261 266 268 272 271 262 254 250 247 244 241 240 241 242 245 246 247 247 245
233 234 235 232 229 228 226 226 227 226 226 229 230 228 227 228 230 234 235 235 238 240 240 244 245 232 215 219 223 225 228 230 231 227 224 223 223 225 223 225 231 227 218 216 217 218 216 217 233 238 232 227 227 229 233 237 239 239 237 238 242 245 243 240 240 247 254 259 263 270 278 280 275 265 256 253 250 244 240 240 241 242 243 244 245 243
233 234 235 233 231 229 227 226 228 228 229 232 232 231 230 229 229 232 236 238 239 239 238 242 246 243 227 215 219 226 226 227 230 229 228 225 225 230 227 224 229 228 221 220 220 223 225 223 230 239 235 230 229 230 234 239 241 240 238 236 238 240 241 240 243 248 254 257 261 268 277 284 286 277 264 262 264 258 249 243 241 242 243 243 242 241
232 233 234 234 232 231 230 228 229 230 232 234 234 233 232 231 231 232 236 239 242 243 243 245 250 252 242 222 214 222 225 225 226 227 230 229 226 230 229 224 225 226 222 222 222 224 229 227 226 232 234 233 235 234 234 238 239 239 237 234 231 233 236 240 245 249 251 255 259 266 276 283 286 283 273 269 272 275 270 257 248 244 244 243 242 239
232 232 233 234 233 232 232 230 229 230 232 234 235 235 234 233 233 234 238 241 242 244 245 247 251 254 251 236 217 216 223 226 225 224 226 227 225 228 232 229 227 226 225 225 225 224 229 229 226 228 229 227 233 237 236 235 234 233 232 228 224 225 230 238 246 249 250 253 257 266 276 278 280 284 281 275 274 280 286 279 264 253 248 244 242 239
232 232 232 234 233 233 232 231 230 231 232 233 235 237 236 235 235 236 240 242 243 245 247 248 250 251 251 244 228 216 220 227 227 225 226 228 225 224 232 235 232 227 224 227 229 228 230 229 224 224 225 223 227 235 237 236 235 234 231 228 225 227 230 237 245 249 250 253 258 267 273 272 273 281 287 286 281 280 283 285 279 268 259 251 244 241
232 232 232 234 234 233 233 232 231 231 232 234 235 236 237 237 237 238 239 240 241 245 246 244 245 246 246 245 239 224 222 227 229 228 229 231 229 225 228 233 232 226 221 224 230 231 231 230 226 224 225 223 223 231 238 241 242 241 239 236 235 235 238 242 248 252 255 259 266 269 270 268 269 274 284 292 291 286 282 280 280 277 271 264 255 251
231 231 232 233 234 234 233 233 232 231 232 234 234 236 237 238 239 238 238 237 238 241 241 240 242 243 241 243 244 234 227 227 228 230 232 234 232 227 225 227 226 224 220 221 226 229 230 233 235 233 230 227 226 230 237 242 244 243 240 238 239 242 245 247 249 252 257 263 268 268 268 268 269 272 279 287 292 293 289 283 280 279 277 274 270 267
230 231 231 233 234 233 233 234 234 233 233 234 234 235 236 238 238 238 238 239 239 240 240 239 240 240 240 244 248 244 238 232 228 227 231 234 234 230 226 226 226 224 222 221 223 227 229 231 235 237 234 231 233 236 240 243 245 244 241 238 239 241 245 248 249 251 254 258 262 264 265 266 268 270 275 282 287 291 291 289 288 286 285 282 279 276
230 230 230 232 233 233 232 233 234 234 233 234 234 233 233 235 238 238 238 240 241 242 242 242 242 241 241 243 243 241 240 238 231 226 227 231 234 233 228 226 227 226 224 223 224 227 229 230 231 235 237 236 234 236 243 249 251 252 250 245 242 240 241 243 247 250 251 251 254 258 262 266 269 270 274 279 283 285 286 289 293 295 294 290 285 283
228 229 230 231 232 232 231 232 234 234 233 233 232 231 232 236 237 237 238 239 241 243 245 246 246 241 236 236 237 236 236 238 236 230 225 226 231 235 232 226 226 227 225 224 226 228 230 231 230 232 235 235 230 227 232 242 248 250 249 246 244 244 243 242 244 248 249 248 250 255 260 265 270 271 271 273 277 280 281 284 289 292 295 296 295 294
226 228 229 230 231 231 230 230 232 234 234 233 233 231 231 233 234 236 238 239 240 243 244 245 244 240 234 233 235 235 233 235 236 233 229 226 228 234 236 230 226 227 226 226 228 230 232 233 232 230 229 230 230 228 228 233 239 242 244 246 247 249 251 249 246 246 247 247 248 251 256 262 267 269 268 268 270 274 276 278 282 286 290 294 297 299
224 226 228 229 230 231 230 230 231 234 234 234 234 233 230 229 232 236 238 238 239 241 241 241 242 240 236 233 233 234 234 235 235 235 233 230 226 228 235 235 230 228 228 228 229 232 233 233 233 231 229 227 229 229 227 230 235 238 241 246 249 250 252 251 247 245 247 249 250 250 252 256 260 263 266 267 268 271 274 275 276 280 283 286 290 293
222 224 226 228 229 231 231 231 232 234 234 233 234 235 232 230 230 235 237 237 237 239 241 241 242 241 239 235 231 231 235 237 239 238 236 234 228 225 229 234 233 231 231 230 231 233 233 233 234 235 236 235 234 233 228 227 230 233 235 240 245 246 246 244 244 244 247 251 253 250 250 253 255 258 263 266 269 273 274 273 271 272 275 279 283 286
220 222 224 226 228 230 231 232 232 233 233 232 234 235 235 232 229 233 237 237 235 238 241 241 241 241 241 239 234 231 233 237 241 242 239 236 232 226 225 230 233 233 232 232 234 234 234 234 236 239 242 245 245 242 236 232 233 233 233 236 242 247 247 246 247 247 247 250 253 251 249 249 251 253 256 260 262 264 265 266 266 266 268 271 274 278
218 219 221 224 226 228 230 232 233 233 233 232 232 234 236 234 230 230 235 236 234 236 239 240 240 240 240 240 237 234 234 237 241 243 242 240 236 231 227 228 231 232 232 231 233 236 236 235 237 240 242 245 246 245 242 241 241 239 240 243 247 250 252 252 250 248 247 250 255 255 251 248 251 254 258 260 259 258 256 256 256 259 260 262 266 271
218 218 219 221 224 227 229 232 233 234 234 233 233 234 235 236 233 229 231 235 234 234 237 238 238 238 238 239 239 238 238 240 242 243 243 242 240 236 232 231 232 232 231 229 231 236 238 235 235 237 241 244 246 246 246 248 249 247 249 252 251 251 256 257 252 247 246 248 252 254 252 252 255 260 264 267 268 267 263 256 251 253 255 255 258 263
219 219 219 220 223 225 228 231 233 234 234 234 234 234 235 236 235 231 230 234 234 233 235 238 238 237 238 239 240 241 241 241 242 244 245 244 242 239 236 234 233 232 231 228 228 232 236 237 234 234 237 241 244 246 248 251 252 252 254 256 256 257 261 262 255 248 247 249 250 252 255 257 261 264 269 274 276 276 273 263 254 253 255 254 253 254
221 221 220 219 220 223 226 229 232 233 234 234 235 235 236 236 237 234 232 233 233 232 234 236 237 238 238 239 240 241 241 241 242 244 246 245 242 240 238 236 234 233 231 229 227 228 232 236 237 237 237 239 241 245 248 251 252 253 255 258 261 264 265 262 256 252 253 255 256 258 262 266 268 269 272 277 279 279 277 271 260 253 253 254 252 251
223 222 221 219 219 221 223 226 229 231 232 233 234 235 236 236 237 237 234 232 232 232 233 234 236 237 238 239 240 241 242 242 242 243 244 244 242 239 237 236 235 234 232 230 228 228 230 233 236 239 240 241 242 245 249 252 254 255 257 260 261 263 261 258 256 255 256 258 261 264 267 269 272 272 272 274 276 278 281 281 275 263 254 251 252 252
224 224 223 221 220 220 222 225 229 231 231 231 232 234 236 237 237 237 237 234 232 232 232 233 234 236 237 239 240 241 242 241 241 241 241 241 241 240 237 236 236 236 235 233 232 231 232 233 235 237 239 241 243 245 248 252 254 255 258 260 262 261 260 259 259 259 260 262 264 266 269 271 272 273 273 274 275 276 279 283 285 281 273 264 258 254
225 225 225 223 222 221 221 224 227 229 228 229 231 233 236 238 239 239 239 237 235 232 232 233 234 235 237 238 239 240 240 239 239 240 240 240 240 240 239 237 235 236 237 237 237 236 236 236 237 237 239 240 242 244 247 250 252 254 256 258 260 262 263 264 264 264 265 267 267 269 270 271 271 271 273 274 274 275 276 277 280 283 285 282 275 266
222 222 224 225 224 223 223 223 224 224 224 226 229 232 234 237 239 240 241 241 239 236 234 234 235 236 237 237 237 239 240 241 240 240 242 243 242 239 239 238 236 235 237 238 240 240 239 239 240 240 240 241 242 243 245 247 250 253 254 256 258 260 262 264 264 265 266 267 268 268 267 267 268 269 270 271 273 274 274 272 272 274 276 279 281 279
217 217 219 222 223 223 224 224 223 221 221 222 226 229 232 235 237 239 240 240 240 238 236 234 233 233 235 236 236 236 237 240 241 241 242 244 244 241 239 238 238 238 237 238 239 241 241 241 242 243 244 245 246 246 246 247 249 251 254 255 257 259 261 262 263 265 266 266 266 266 266 267 268 269 270 271 273 274 273 271 270 270 270 272 276 278
210 210 213 217 219 221 223 224 223 220 218 219 223 226 229 231 231 232 235 236 236 236 236 235 234 232 231 232 233 233 234 236 239 241 241 242 243 242 241 241 242 242 240 237 237 238 241 243 245 246 248 249 250 251 251 252 252 253 254 256 258 260 262 264 266 267 268 268 267 267 268 268 269 269 271 271 271 272 272 271 271 271 271 271 271 271
207 207 208 210 213 216 218 222 223 219 215 216 220 223 224 226 223 223 229 236 237 236 235 234 233 232 231 232 233 235 237 238 239 240 240 240 241 242 243 245 247 247 245 242 238 237 240 243 245 247 248 248 249 250 251 252 253 254 254 256 258 260 263 265 267 267 266 266 267 267 268 268 269 269 270 270 270 270 271 271 271 271 271 271 269 267
207 206 205 205 207 211 213 217 222 220 215 214 216 219 221 222 222 223 228 232 232 229 228 229 230 230 231 233 235 239 242 241 237 235 236 237 237 239 242 246 249 251 250 248 246 246 245 244 244 246 247 247 247 248 249 249 250 251 253 255 257 258 260 261 262 262 261 261 262 263 264 265 266 267 268 269 270 271 271 272 272 272 271 270 268 266
203 203 204 204 205 207 210 214 219 219 214 211 213 216 218 219 221 223 225 224 220 217 217 219 221 224 227 229 232 238 241 237 231 228 230 232 234 236 239 244 247 250 250 250 251 253 254 251 247 245 245 247 249 251 252 252 253 254 255 257 259 260 261 262 263 262 261 260 260 260 261 262 264 265 267 269 271 272 271 270 270 269 268 267 266 264
Height
5850 5851 5852 5854 5856 5858 5860 5862 5863 5864 5866 5866 5867 5868 5870 5872 5874 5877 5877 5877 5876 5877 5880 5881 5880 5880 5880 5881 5881 5882 5883 5884 5885 5886 5888 5890 5892 5893 5893 5894 5894 5893 5894 5894 5894 5894 5895 5895 5896 5897 5898 5900 5902 5904 5905 5907 5908 5908 5909 5910 5911 5912 5913 5914 5915 5915 5916 5917 5918 5919 5920 5921 5921 5922 5923 5924 5924 5925 5926 5926 5927 5927 5927 5928 5928 5929
5848 5850 5852 5853 5855 5856 5857 5859 5860 5862 5864 5864 5865 5866 5868 5870 5873 5875 5875 5875 5875 5875 5878 5878 5878 5879 5879 5879 5879 5879 5881 5882 5883 5885 5887 5889 5891 5892 5893 5894 5893 5893 5893 5894 5893 5894 5894 5895 5896 5897 5898 5900 5902 5903 5905 5906 5907 5908 5909 5910 5911 5912 5913 5914 5915 5916 5916 5917 5918 5919 5920 5921 5921 5922 5923 5923 5924 5925 5926 5926 5927 5927 5927 5928 5928 5928
5847 5850 5851 5851 5852 5853 5854 5856 5858 5859 5861 5862 5863 5864 5866 5869 5871 5872 5873 5874 5872 5872 5874 5875 5875 5876 5876 5876 5877 5877 5878 5879 5880 5882 5885 5887 5889 5891 5892 5893 5893 5892 5892 5893 5893 5893 5894 5895 5896 5897 5898 5900 5901 5902 5904 5905 5907 5908 5909 5910 5911 5912 5913 5914 5915 5915 5916 5917 5918 5918 5920 5921 5921 5922 5923 5924 5924 5925 5926 5926 5926 5927 5927 5927 5928 5928
5846 5848 5848 5849 5849 5850 5851 5853 5854 5856 5857 5859 5861 5862 5865 5868 5869 5870 5870 5870 5869 5869 5871 5871 5872 5873 5873 5874 5876 5877 5877 5877 5878 5879 5881 5884 5887 5890 5891 5892 5892 5892 5891 5892 5893 5893 5894 5894 5895 5897 5898 5899 5900 5902 5903 5905 5907 5908 5909 5910 5911 5912 5913 5914 5914 5915 5916 5917 5917 5918 5919 5920 5921 5922 5923 5923 5924 5925 5925 5926 5926 5927 5927 5927 5927 5928
5843 5845 5845 5846 5847 5847 5848 5849 5851 5852 5854 5857 5858 5860 5864 5866 5866 5867 5867 5867 5866 5866 5868 5868 5868 5869 5871 5873 5875 5876 5876 5876 5877 5878 5878 5881 5884 5888 5890 5890 5891 5891 5891 5891 5892 5893 5893 5894 5895 5896 5897 5898 5899 5901 5903 5905 5907 5908 5909 5909 5910 5911 5912 5913 5914 5915 5916 5917 5917 5918 5919 5920 5921 5922 5922 5923 5924 5924 5925 5926 5926 5927 5927 5927 5927 5928
5840 5842 5843 5844 5844 5845 5846 5846 5848 5850 5852 5854 5856 5859 5863 5863 5863 5865 5865 5864 5863 5864 5866 5866 5865 5866 5869 5871 5872 5873 5874 5875 5876 5877 5877 5878 5882 5885 5888 5889 5890 5890 5891 5890 5891 5892 5892 5893 5894 5895 5896 5898 5899 5901 5902 5904 5905 5906 5907 5908 5909 5911 5912 5913 5914 5915 5916 5917 5917 5918 5918 5919 5920 5921 5922 5922 5923 5924 5925 5925 5926 5927 5927 5928 5928 5928
5837 5839 5839 5840 5842 5843 5844 5846 5847 5848 5850 5852 5855 5858 5858 5859 5860 5862 5863 5861 5860 5862 5864 5863 5861 5862 5864 5867 5870 5871 5872 5874 5874 5875 5875 5876 5879 5883 5886 5888 5888 5889 5890 5890 5890 5891 5892 5892 5893 5895 5896 5898 5899 5900 5902 5903 5904 5905 5906 5908 5909 5910 5911 5912 5913 5914 5915 5916 5917 5917 5918 5918 5919 5920 5921 5922 5922 5923 5924 5925 5925 5926 5927 5927 5927 5927
5836 5836 5836 5838 5840 5841 5843 5845 5847 5847 5849 5851 5854 5854 5854 5857 5858 5859 5859 5858 5857 5859 5859 5859 5859 5858 5860 5865 5867 5868 5870 5872 5872 5873 5873 5874 5877 5881 5884 5886 5887 5888 5889 5890 5890 5890 5891 5891 5892 5894 5895 5897 5898 5900 5901 5902 5904 5905 5906 5907 5908 5910 5911 5912 5913 5914 5914 5915 5916 5916 5917 5918 5918 5919 5920 5921 5922 5923 5923 5924 5924 5925 5926 5926 5927 5927
5833 5832 5834 5835 5836 5838 5841 5844 5845 5846 5848 5849 5850 5850 5851 5854 5855 5855 5855 5855 5856 5855 5853 5856 5858 5855 5856 5862 5865 5865 5867 5870 5873 5873 5872 5873 5875 5878 5882 5884 5886 5887 5888 5889 5890 5890 5890 5891 5891 5893 5894 5895 5897 5898 5900 5902 5903 5904 5905 5906 5907 5909 5910 5911 5912 5913 5914 5914 5915 5916 5916 5917 5917 5918 5919 5920 5921 5922 5922 5923 5923 5924 5925 5925 5926 5926
5828 5829 5830 5831 5832 5834 5838 5840 5841 5844 5845 5846 5847 5847 5848 5849 5851 5852 5851 5852 5853 5848 5847 5854 5855 5852 5853 5858 5861 5862 5865 5870 5874 5874 5872 5871 5872 5876 5880 5882 5884 5885 5886 5888 5889 5889 5889 5890 5890 5892 5893 5894 5895 5897 5899 5901 5903 5904 5905 5906 5907 5908 5909 5910 5911 5912 5913 5914 5914 5915 5916 5916 5916 5917 5918 5919 5920 5921 5921 5922 5922 5923 5924 5924 5925 5925
5824 5825 5825 5828 5830 5832 5835 5836 5838 5840 5841 5841 5843 5843 5843 5844 5846 5847 5847 5849 5848 5841 5843 5852 5853 5850 5850 5853 5857 5860 5864 5869 5872 5872 5870 5869 5870 5873 5877 5880 5883 5884 5885 5886 5887 5888 5889 5889 5890 5891 5893 5894 5895 5897 5898 5900 5902 5903 5905 5906 5907 5908 5909 5909 5910 5911 5912 5913 5914 5915 5915 5915 5916 5917 5918 5918 5919 5920 5920 5921 5921 5922 5922 5923 5924 5924
5820 5821 5823 5826 5829 5830 5831 5833 5835 5837 5836 5837 5838 5839 5839 5840 5841 5842 5842 5845 5841 5837 5843 5850 5852 5850 5848 5850 5856 5860 5864 5867 5869 5870 5870 5868 5869 5871 5874 5878 5880 5882 5884 5885 5886 5887 5888 5888 5889 5891 5892 5894 5895 5896 5898 5899 5901 5902 5904 5905 5906 5907 5908 5909 5910 5910 5911 5912 5913 5914 5914 5914 5915 5916 5917 5917 5918 5919 5919 5920 5920 5921 5921 5922 5922 5923
5817 5819 5821 5823 5825 5827 5828 5830 5832 5833 5833 5834 5835 5835 5835 5836 5837 5836 5838 5839 5838 5837 5842 5848 5850 5847 5846 5850 5855 5858 5862 5864 5867 5869 5869 5868 5868 5869 5871 5874 5877 5879 5882 5883 5884 5885 5886 5887 5888 5889 5891 5892 5894 5896 5897 5898 5899 5901 5902 5904 5905 5906 5907 5908 5909 5910 5911 5911 5912 5912 5913 5913 5914 5915 5916 5916 5917 5917 5918 5919 5920 5920 5920 5921 5921 5921
5814 5816 5817 5819 5822 5824 5826 5828 5829 5830 5831 5832 5833 5832 5832 5833 5832 5833 5835 5836 5837 5838 5840 5845 5847 5843 5844 5850 5854 5856 5860 5862 5865 5867 5868 5869 5868 5868 5869 5872 5874 5876 5878 5881 5882 5883 5885 5886 5888 5889 5889 5891 5893 5894 5895 5896 5898 5899 5901 5902 5904 5905 5906 5907 5908 5909 5910 5911 5911 5911 5912 5912 5913 5914 5914 5915 5915 5916 5917 5917 5918 5919 5919 5919 5920 5920
5808 5809 5813 5817 5820 5822 5823 5826 5828 5827 5828 5829 5831 5831 5830 5831 5830 5832 5834 5835 5836 5837 5837 5840 5841 5840 5843 5849 5852 5855 5858 5860 5863 5865 5867 5868 5869 5868 5869 5870 5871 5873 5875 5877 5879 5881 5883 5884 5886 5887 5888 5889 5891 5892 5893 5895 5896 5898 5900 5901 5902 5903 5904 5905 5907 5907 5909 5909 5910 5910 5910 5911 5912 5913 5913 5913 5914 5915 5915 5916 5917 5917 5917 5918 5919 5919
5803 5806 5811 5813 5815 5816 5819 5822 5823 5822 5823 5825 5826 5826 5828 5831 5830 5830 5831 5833 5834 5834 5833 5835 5837 5840 5843 5845 5848 5852 5854 5857 5860 5862 5864 5866 5867 5868 5868 5869 5870 5871 5873 5874 5876 5879 5881 5882 5883 5885 5886 5888 5889 5890 5892 5893 5895 5896 5898 5899 5900 5901 5902 5903 5904 5905 5906 5907 5907 5908 5908 5909 5910 5911 5912 5912 5913 5913 5914 5914 5915 5915 5916 5916 5917 5918
5799 5804 5808 5807 5808 5813 5815 5817 5816 5816 5819 5819 5819 5824 5829 5830 5828 5827 5828 5831 5832 5829 5830 5832 5834 5838 5840 5841 5845 5848 5851 5854 5857 5859 5862 5863 5865 5866 5867 5868 5869 5871 5872 5873 5875 5877 5878 5879 5880 5882 5884 5885 5887 5888 5890 5891 5893 5895 5895 5896 5897 5898 5900 5901 5902 5903 5904 5904 5905 5906 5906 5907 5908 5909 5910 5910 5911 5911 5912 5912 5913 5913 5914 5915 5916 5916
5792 5799 5802 5801 5804 5809 5810 5810 5810 5811 5813 5813 5817 5825 5826 5823 5822 5822 5823 5826 5827 5824 5826 5830 5832 5834 5837 5839 5843 5846 5849 5852 5854 5856 5859 5860 5862 5864 5866 5868 5869 5870 5871 5872 5873 5875 5876 5877 5878 5879 5881 5883 5885 5886 5888 5889 5891 5892 5893 5894 5895 5896 5898 5899 5899 5900 5901 5902 5903 5903 5904 5904 5905 5906 5907 5907 5908 5909 5910 5911 5911 5911 5912 5913 5913 5914
5786 5790 5794 5796 5800 5803 5803 5802 5802 5804 5808 5811 5817 5820 5817 5815 5818 5818 5818 5821 5823 5822 5825 5829 5831 5832 5835 5838 5842 5845 5847 5849 5851 5853 5855 5857 5859 5861 5864 5866 5867 5869 5869 5870 5871 5872 5873 5875 5876 5877 5878 5880 5882 5883 5885 5887 5888 5889 5890 5891 5892 5894 5895 5896 5897 5898 5899 5900 5900 5901 5901 5901 5902 5903 5904 5904 5905 5906 5908 5909 5909 5909 5910 5911 5911 5912
5781 5784 5788 5792 5795 5796 5794 5793 5795 5801 5805 5809 5812 5812 5810 5812 5815 5815 5815 5818 5821 5822 5824 5828 5829 5830 5833 5837 5840 5842 5844 5846 5848 5850 5852 5854 5856 5858 5861 5863 5865 5866 5867 5868 5869 5870 5872 5873 5873 5875 5876 5878 5879 5881 5882 5883 5884 5886 5887 5888 5890 5891 5893 5893 5895 5896 5896 5897 5897 5898 5898 5898 5899 5899 5900 5901 5902 5904 5906 5906 5906 5907 5907 5908 5909 5910
5777 5779 5784 5789 5789 5788 5786 5786 5792 5800 5803 5805 5806 5808 5809 5810 5811 5812 5812 5814 5818 5820 5822 5825 5827 5828 5833 5836 5837 5839 5841 5843 5844 5846 5848 5850 5853 5855 5857 5859 5862 5863 5865 5866 5867 5868 5869 5870 5871 5872 5873 5875 5876 5877 5878 5879 5881 5883 5884 5885 5887 5889 5890 5892 5892 5893 5893 5894 5894 5895 5895 5895 5896 5896 5897 5898 5899 5901 5902 5903 5904 5904 5904 5905 5907 5907
5771 5771 5776 5783 5783 5781 5782 5786 5793 5798 5799 5801 5802 5805 5807 5808 5808 5808 5808 5812 5816 5818 5820 5821 5822 5827 5833 5834 5834 5836 5837 5839 5841 5842 5844 5847 5849 5851 5854 5856 5858 5860 5862 5864 5865 5866 5867 5868 5869 5869 5870 5871 5873 5874 5875 5876 5878 5880 5881 5882 5884 5885 5888 5889 5890 5890 5890 5891 5892 5892 5892 5892 5893 5893 5894 5895 5896 5898 5899 5900 5900 5901 5901 5903 5904 5904
5763 5764 5769 5776 5778 5778 5781 5785 5789 5792 5794 5795 5795 5800 5803 5802 5802 5803 5807 5813 5815 5814 5817 5818 5817 5823 5830 5832 5833 5834 5835 5836 5838 5839 5841 5843 5845 5847 5850 5852 5854 5857 5860 5861 5862 5863 5864 5865 5866 5866 5867 5868 5869 5871 5872 5874 5876 5877 5879 5880 5881 5882 5885 5887 5887 5888 5888 5889 5889 5889 5889 5890 5890 5890 5891 5892 5893 5895 5896 5896 5896 5897 5898 5899 5900 5901
5755 5757 5762 5769 5773 5775 5778 5781 5782 5784 5787 5786 5787 5793 5795 5795 5798 5802 5807 5811 5809 5808 5813 5814 5813 5820 5828 5830 5831 5832 5833 5834 5836 5837 5839 5840 5842 5844 5846 5848 5851 5854 5856 5858 5859 5860 5861 5862 5862 5862 5863 5865 5867 5868 5869 5871 5873 5874 5876 5877 5878 5880 5882 5884 5884 5885 5886 5886 5887 5887 5887 5888 5888 5888 5889 5889 5890 5891 5892 5892 5892 5893 5894 5896 5897 5898
5747 5750 5754 5760 5765 5768 5770 5772 5773 5776 5778 5778 5781 5787 5790 5793 5798 5799 5802 5804 5801 5802 5808 5808 5808 5816 5826 5828 5829 5830 5831 5832 5834 5835 5837 5838 5839 5841 5843 5845 5847 5850 5852 5854 5855 5857 5857 5859 5859 5859 5860 5862 5864 5866 5867 5868 5870 5872 5873 5875 5875 5877 5879 5880 5881 5882 5883 5884 5884 5885 5885 5886 5886 5887 5887 5887 5887 5888 5888 5888 5889 5889 5891 5892 5894 5895
5739 5743 5746 5751 5756 5760 5762 5765 5767 5769 5772 5774 5778 5783 5787 5791 5793 5795 5798 5797 5794 5799 5804 5803 5806 5814 5822 5825 5826 5828 5829 5830 5832 5833 5834 5836 5837 5838 5840 5842 5844 5847 5849 5850 5852 5853 5854 5855 5856 5856 5857 5859 5861 5863 5864 5866 5867 5869 5871 5872 5873 5875 5876 5877 5879 5880 5881 5881 5882 5883 5884 5884 5885 5885 5885 5885 5885 5885 5885 5885 5886 5886 5887 5889 5890 5892
5732 5736 5738 5742 5749 5753 5756 5760 5763 5766 5768 5769 5772 5777 5782 5786 5789 5792 5792 5788 5791 5797 5799 5801 5807 5812 5817 5823 5825 5825 5826 5828 5829 5830 5832 5833 5835 5836 5837 5839 5841 5843 5845 5847 5849 5850 5851 5852 5853 5853 5854 5856 5858 5860 5862 5863 5865 5866 5868 5869 5871 5872 5873 5874 5876 5878 5879 5879 5880 5881 5882 5882 5883 5883 5883 5883 5883 5883 5883 5883 5883 5883 5885 5886 5887 5889
5724 5728 5730 5734 5740 5746 5751 5754 5757 5759 5762 5764 5767 5772 5777 5781 5785 5786 5784 5785 5791 5793 5793 5801 5808 5808 5811 5819 5822 5823 5824 5825 5827 5828 5829 5830 5832 5833 5834 5836 5837 5840 5842 5844 5845 5847 5849 5850 5851 5851 5852 5854 5855 5857 5859 5861 5862 5864 5865 5867 5868 5869 5871 5872 5873 5875 5876 5877 5878 5879 5880 5881 5881 5881 5881 5881 5881 5881 5881 5881 5881 5881 5882 5883 5885 5886
5716 5720 5722 5726 5732 5739 5744 5748 5751 5754 5757 5759 5763 5768 5772 5776 5780 5781 5781 5785 5789 5788 5791 5803 5806 5803 5807 5813 5818 5822 5823 5823 5824 5825 5825 5827 5829 5830 5832 5833 5835 5837 5839 5841 5842 5845 5846 5848 5849 5849 5850 5851 5853 5854 5857 5858 5860 5861 5863 5864 5865 5867 5869 5870 5871 5873 5874 5875 5876 5877 5878 5878 5879 5879 5879 5880 5880 5880 5880 5880 5879 5879 5880 5881 5883 5884
5708 5712 5715 5719 5725 5731 5736 5740 5745 5748 5751 5754 5759 5762 5766 5771 5775 5777 5779 5782 5784 5784 5790 5799 5798 5797 5803 5809 5813 5818 5819 5819 5821 5821 5821 5823 5825 5827 5828 5830 5832 5834 5836 5838 5839 5842 5844 5845 5846 5847 5848 5849 5850 5852 5854 5856 5858 5859 5861 5862 5863 5865 5867 5868 5869 5870 5871 5872 5874 5875 5876 5876 5877 5877 5878 5878 5879 5879 5879 5878 5878 5878 5879 5880 5881 5882
5700 5704 5707 5712 5717 5722 5728 5732 5737 5741 5745 5748 5753 5758 5762 5765 5769 5772 5774 5776 5778 5779 5786 5792 5791 5792 5801 5806 5809 5813 5815 5816 5817 5817 5818 5820 5821 5823 5825 5826 5829 5830 5832 5834 5836 5838 5840 5842 5844 5845 5846 5847 5848 5850 5852 5854 5855 5857 5858 5860 5861 5863 5864 5865 5867 5868 5869 5871 5872 5872 5873 5874 5874 5875 5876 5876 5877 5877 5877 5877 5877 5877 5878 5879 5879 5880
5691 5695 5701 5704 5708 5715 5721 5723 5728 5735 5739 5743 5749 5754 5757 5759 5762 5766 5768 5771 5773 5776 5782 5785 5784 5789 5800 5805 5806 5809 5810 5812 5813 5815 5816 5816 5817 5819 5820 5822 5825 5827 5828 5831 5833 5835 5837 5839 5841 5843 5844 5846 5847 5848 5850 5851 5853 5854 5855 5857 5859 5860 5861 5862 5864 5865 5867 5869 5869 5869 5870 5871 5872 5872 5873 5874 5874 5875 5875 5875 5875 5876 5876 5877 5877 5878
5682 5687 5693 5696 5699 5707 5713 5715 5721 5727 5731 5738 5745 5748 5750 5753 5757 5760 5763 5766 5769 5773 5777 5778 5781 5791 5799 5801 5800 5803 5805 5807 5809 5811 5812 5813 5813 5814 5816 5819 5821 5823 5826 5828 5830 5832 5834 5836 5838 5840 5842 5843 5845 5846 5848 5849 5850 5851 5853 5855 5856 5856 5857 5859 5861 5863 5864 5866 5866 5867 5867 5868 5869 5870 5871 5871 5871 5872 5872 5872 5873 5874 5874 5875 5875 5875
5674 5679 5684 5687 5691 5698 5704 5709 5714 5717 5724 5733 5738 5741 5746 5750 5751 5753 5757 5761 5765 5769 5772 5776 5781 5788 5793 5793 5794 5797 5800 5802 5804 5806 5807 5808 5809 5810 5812 5815 5817 5820 5822 5824 5826 5828 5830 5833 5835 5836 5838 5840 5842 5844 5845 5845 5847 5848 5849 5851 5851 5852 5854 5856 5858 5860 5862 5863 5863 5864 5865 5865 5866 5867 5868 5868 5868 5868 5869 5870 5871 5871 5872 5872 5872 5872
5667 5671 5676 5680 5684 5689 5696 5702 5704 5708 5720 5728 5729 5734 5742 5743 5743 5747 5752 5757 5761 5764 5767 5771 5775 5781 5785 5787 5790 5792 5794 5796 5797 5800 5802 5803 5805 5807 5809 5811 5813 5816 5818 5820 5822 5824 5827 5829 5831 5833 5835 5837 5838 5840 5841 5842 5843 5845 5845 5846 5847 5849 5851 5853 5855 5856 5858 5859 5860 5861 5862 5862 5863 5864 5864 5865 5865 5865 5866 5867 5868 5869 5869 5869 5870 5870
5660 5664 5668 5672 5675 5680 5688 5693 5695 5703 5715 5719 5720 5728 5733 5734 5739 5744 5747 5753 5757 5758 5760 5764 5769 5774 5779 5782 5785 5787 5788 5789 5791 5794 5797 5799 5802 5804 5806 5808 5810 5811 5814 5816 5818 5820 5823 5826 5828 5829 5831 5832 5833 5835 5836 5838 5840 5841 5842 5843 5844 5846 5848 5850 5851 5853 5854 5855 5857 5858 5859 5859 5860 5860 5861 5861 5861 5862 5862 5863 5864 5865 5866 5866 5867 5867
5653 5656 5660 5664 5668 5673 5680 5684 5689 5698 5706 5710 5715 5721 5724 5729 5737 5739 5741 5748 5753 5753 5754 5759 5764 5769 5773 5777 5780 5782 5782 5784 5786 5789 5792 5795 5798 5800 5803 5804 5806 5808 5810 5812 5814 5817 5819 5822 5824 5826 5827 5828 5830 5831 5833 5834 5836 5837 5839 5839 5840 5842 5844 5845 5847 5849 5850 5851 5853 5854 5855 5856 5856 5856 5857 5857 5857 5858 5859 5860 5861 5861 5862 5863 5863 5863
5645 5649 5654 5658 5662 5667 5672 5676 5682 5688 5695 5704 5710 5712 5715 5724 5731 5733 5736 5743 5748 5749 5750 5754 5759 5764 5769 5772 5775 5777 5777 5778 5781 5784 5788 5791 5793 5796 5799 5801 5802 5804 5806 5808 5810 5813 5815 5818 5820 5822 5824 5825 5827 5828 5830 5831 5832 5833 5834 5835 5836 5838 5840 5841 5843 5845 5846 5847 5848 5848 5850 5852 5852 5852 5852 5852 5853 5854 5855 5855 5856 5857 5858 5858 5859 5860
5637 5642 5647 5650 5655 5660 5664 5668 5673 5679 5688 5698 5703 5705 5709 5715 5724 5730 5731 5735 5743 5745 5746 5749 5754 5759 5763 5766 5769 5771 5772 5774 5777 5780 5784 5787 5789 5792 5795 5797 5799 5801 5803 5804 5806 5808 5811 5814 5816 5818 5820 5821 5823 5825 5826 5827 5828 5829 5830 5832 5833 5835 5836 5838 5840 5841 5842 5843 5843 5843 5845 5846 5846 5846 5847 5848 5848 5849 5849 5850 5851 5852 5852 5853 5855 5856
5628 5634 5638 5642 5647 5654 5658 5661 5666 5672 5682 5691 5696 5700 5704 5708 5717 5724 5724 5729 5738 5741 5741 5745 5750 5754 5757 5760 5763 5766 5768 5771 5775 5777 5779 5782 5785 5788 5790 5792 5795 5797 5799 5801 5802 5804 5807 5809 5811 5814 5815 5817 5819 5820 5821 5823 5824 5825 5827 5829 5830 5831 5832 5835 5836 5836 5836 5838 5838 5838 5840 5841 5841 5841 5842 5843 5844 5843 5843 5843 5844 5845 5846 5848 5849 5850
5621 5626 5631 5636 5643 5649 5651 5654 5659 5667 5677 5685 5689 5695 5700 5703 5708 5714 5719 5726 5734 5736 5738 5742 5746 5749 5752 5754 5758 5761 5764 5767 5770 5772 5774 5778 5781 5783 5786 5788 5790 5792 5794 5796 5798 5800 5802 5804 5806 5809 5811 5812 5814 5815 5817 5818 5820 5821 5823 5824 5825 5827 5829 5831 5831 5831 5831 5832 5833 5834 5835 5836 5837 5837 5837 5837 5838 5838 5838 5838 5839 5840 5841 5842 5843 5844
5613 5618 5623 5630 5637 5642 5646 5651 5654 5660 5670 5678 5683 5689 5694 5696 5700 5708 5717 5723 5727 5731 5735 5739 5741 5744 5747 5749 5753 5757 5759 5763 5765 5767 5770 5773 5775 5778 5781 5783 5785 5787 5789 5792 5794 5795 5797 5799 5801 5803 5805 5807 5809 5810 5812 5813 5815 5817 5818 5819 5821 5824 5825 5826 5826 5826 5827 5827 5828 5830 5831 5832 5832 5833 5833 5833 5832 5832 5833 5834 5834 5835 5835 5836 5837 5838
5606 5610 5615 5623 5631 5637 5641 5643 5645 5652 5665 5674 5678 5682 5687 5690 5696 5705 5713 5717 5721 5727 5732 5735 5737 5740 5742 5745 5748 5751 5754 5757 5760 5762 5765 5767 5770 5773 5775 5777 5780 5782 5784 5786 5788 5790 5792 5794 5795 5797 5800 5802 5804 5805 5806 5807 5809 5811 5813 5815 5817 5818 5819 5820 5821 5821 5822 5823 5824 5825 5826 5827 5828 5828 5828 5829 5828 5827 5827 5827 5828 5829 5830 5830 5831 5832
5599 5604 5611 5619 5626 5629 5632 5635 5639 5650 5664 5670 5673 5677 5681 5686 5693 5701 5707 5712 5718 5724 5728 5731 5733 5735 5737 5740 5743 5746 5749 5752 5754 5757 5760 5762 5765 5767 5770 5772 5775 5777 5779 5781 5783 5785 5787 5788 5790 5792 5794 5796 5799 5801 5802 5803 5805 5807 5808 5810 5811 5811 5812 5814 5815 5816 5817 5818 5819 5820 5821 5822 5823 5823 5823 5824 5824 5823 5822 5821 5821 5822 5823 5825 5826 5826
5594 5601 5607 5613 5617 5621 5626 5632 5640 5651 5662 5666 5669 5673 5678 5683 5689 5696 5702 5708 5714 5719 5724 5727 5730 5731 5733 5736 5738 5740 5743 5746 5749 5752 5755 5757 5760 5762 5765 5767 5770 5772 5775 5776 5778 5780 5782 5783 5785 5787 5789 5791 5793 5795 5797 5798 5800 5802 5804 5805 5806 5806 5807 5809 5810 5811 5812 5813 5814 5815 5816 5816 5817 5817 5817 5818 5818 5818 5818 5817 5815 5815 5816 5817 5819 5820
5589 5595 5600 5605 5611 5617 5623 5629 5637 5648 5657 5663 5666 5670 5675 5680 5686 5692 5698 5704 5708 5714 5719 5723 5725 5727 5729 5731 5733 5735 5737 5740 5744 5747 5749 5752 5754 5757 5760 5762 5765 5768 5770 5772 5774 5775 5776 5778 5780 5782 5784 5786 5788 5790 5792 5793 5795 5797 5798 5800 5801 5802 5803 5804 5805 5806 5807 5808 5809 5809 5809 5810 5810 5811 5811 5812 5811 5812 5813 5812 5811 5811 5811 5810 5810 5811
5582 5586 5590 5596 5605 5612 5618 5624 5633 5643 5652 5658 5662 5667 5673 5679 5684 5689 5694 5698 5702 5708 5712 5716 5719 5722 5724 5725 5728 5730 5732 5735 5738 5741 5744 5746 5748 5751 5754 5757 5760 5763 5766 5768 5769 5771 5772 5774 5775 5777 5779 5781 5782 5784 5787 5788 5790 5791 5792 5794 5795 5796 5797 5798 5799 5800 5801 5802 5803 5803 5803 5804 5804 5804 5805 5805 5805 5805 5805 5805 5805 5805 5806 5806 5805 5804
5574 5577 5582 5590 5599 5605 5612 5620 5628 5637 5647 5653 5658 5664 5671 5676 5682 5686 5688 5692 5697 5700 5704 5708 5712 5714 5716 5718 5721 5724 5726 5729 5732 5735 5738 5741 5743 5746 5749 5752 5756 5759 5761 5764 5766 5767 5768 5770 5771 5772 5774 5775 5777 5779 5781 5782 5784 5785 5787 5788 5789 5789 5790 5791 5792 5793 5794 5795 5796 5796 5797 5797 5798 5798 5798 5797 5797 5797 5797 5797 5797 5797 5798 5800 5800 5800
5566 5570 5578 5586 5593 5600 5607 5615 5622 5631 5641 5648 5654 5662 5669 5672 5676 5680 5683 5687 5691 5693 5696 5700 5704 5707 5710 5712 5715 5719 5722 5724 5727 5730 5733 5736 5739 5742 5744 5748 5751 5754 5757 5759 5761 5763 5765 5766 5766 5768 5769 5771 5773 5774 5775 5777 5778 5779 5781 5782 5782 5783 5784 5785 5786 5787 5788 5789 5789 5790 5790 5791 5791 5791 5791 5790 5790 5789 5789 5789 5789 5789 5790 5792 5793 5793
5564 5569 5576 5582 5587 5595 5605 5613 5619 5627 5636 5643 5650 5659 5666 5668 5669 5673 5678 5681 5683 5685 5688 5692 5696 5699 5702 5706 5710 5714 5717 5719 5721 5723 5726 5729 5733 5736 5739 5742 5745 5748 5751 5753 5755 5758 5760 5761 5762 5762 5764 5766 5768 5769 5771 5772 5773 5774 5775 5776 5777 5778 5779 5780 5781 5782 5782 5783 5783 5783 5783 5784 5783 5783 5783 5782 5781 5781 5781 5780 5780 5781 5781 5782 5783 5783
5563 5566 5571 5575 5582 5592 5602 5610 5615 5621 5630 5638 5645 5654 5661 5663 5664 5668 5674 5677 5678 5679 5683 5687 5688 5689 5692 5698 5704 5708 5711 5712 5713 5714 5717 5722 5726 5731 5734 5737 5739 5742 5744 5746 5749 5752 5754 5755 5757 5758 5759 5760 5762 5764 5765 5766 5767 5768 5769 5769 5770 5771 5772 5773 5774 5775 5775 5776 5776 5776 5776 5776 5776 5775 5774 5773 5773 5772 5771 5771 5771 5771 5772 5772 5772 5772